Regional Weather Roundup
Issued by NWS

Home | Current Version | Previous Version | Graphics & Text | Print | Product List | Glossary Off
Versions: 1 2 3 4 5 6 7 8 9 10 11 12 13 14 15 16 17 18 19 20 21 22 23 24 25 26 27 28 29 30 31 32 33 34 35 36 37 38 39 40 41 42 43 44 45 46 47 48 49 50

869
ASUS43 KDMX 251506
RWRIA

WEATHER ROUNDUP FOR IOWA
NATIONAL WEATHER SERVICE DES MOINES IA
1000 AM CDT SAT MAR 25 2017

NOTE: "FAIR" INDICATES FEW OR NO CLOUDS BELOW 12,000 FEET WITH NO
SIGNIFICANT WEATHER AND/OR OBSTRUCTIONS TO VISIBILITY.

* - THESE STATIONS ARE NOT NWS STATIONS...THUS NOT UNDER NWS
QUALITY CONTROL.  THEY ALSO DO NOT REPORT WEATHER SUCH
AS PRECIPITATION OR FOG.

IAZ001>003-012>014-020>022-031>034-043>046-251600-
   NORTHWEST IOWA

CITY           SKY/WX    TMP DP  RH WIND       PRES   REMARKS
CARROLL *      LGT RAIN  39  39 100 NE17      30.00F WCI  30
CHEROKEE *     CLOUDY    37  37  98 NE9       30.05S FOG     WCI  31
LE MARS *      CLOUDY    37  36  93 NE16      30.07F WCI  28
ORANGE CITY *  CLOUDY    36  36 100 NE10      30.07S FOG     WCI  28
SHELDON *      CLOUDY    36  36 100 NE18      30.06S FOG     WCI  25
$$

IAZ055>058-069>071-079>083-090>094-251600-
   SOUTHWEST IOWA

CITY           SKY/WX    TMP DP  RH WIND       PRES   REMARKS
ATLANTIC *     LGT RAIN  39  39 100 NE18G26   29.96S WCI  30
AUDUBON *      DRIZZLE   37  36  93 NE16G24   29.99R WCI  28
CLARINDA *     CLOUDY    43  43 100 NE13      29.95S
COUNCIL BLFS * LGT RAIN  39  39 100 N17       29.96F WCI  30
CRESTON *      MIX PCPN  39  39 100 N20G28    29.92R WCI  30
HARLAN  *      LGT RAIN  39  39 100 NE22G30   30.00F WCI  29
LAMONI         LGT RAIN  42  41  96 N13G22    29.89R FOG
RED OAK *      LGT RAIN  41  39  93 NE22      29.95R
SHENANDOAH *   LGT RAIN  41  41 100 NE17      29.95R
$$

IAZ047>049-059>061-072>074-084-251600-
   CENTRAL IOWA

CITY           SKY/WX    TMP DP  RH WIND       PRES   REMARKS
ANKENY *       LGT RAIN  39  37  93 NE16      29.97S WCI  30
BOONE *        LGT RAIN  37  37 100 NE20      29.97S WCI  27
CHARITON *     MIX PCPN  41  41 100 N17       29.89S
DES MOINES     RAIN      40  38  93 NE18      29.95S FOG     WCI  31
GRINNELL*      LGT RAIN  38  37  96 NE15G28   29.95S WCI  30
NEWTON *       CLOUDY    39  37  93 NE16G26   29.93S FOG     WCI  30
PELLA *        LGT RAIN  40  40  97 NE10G16   29.94S WCI  34
$$

IAZ004>006-015-016-023>025-035-036-251600-
   NORTH CENTRAL IOWA

CITY           SKY/WX    TMP DP  RH WIND       PRES   REMARKS
ALGONA *       CLOUDY    37  37 100 NE20      30.04S FOG     WCI  27
CLARION *      CLOUDY    37  37 100 NE17      30.02S FOG     WCI  28
FORT DODGE *   CLOUDY    37  34  87 NE10G18   30.03S WCI  30
MASON CITY     CLOUDY    37  36  93 NE14      30.06F FOG     WCI  29
FOREST CITY *  CLOUDY    36  36 100 NE15G21   30.05S FOG     WCI  26
WEBSTER CITY * RAIN      37  37 100 NE18      30.00R WCI  27
$$

IAZ007>011-017>019-026>030-037>042-050>054-066-251600-
   NORTHEAST IOWA

CITY           SKY/WX    TMP DP  RH WIND       PRES   REMARKS
CHARLES CITY * CLOUDY    37  37 100 NE17G24   30.04S FOG     WCI  28
CLINTON *      LGT RAIN  41  39  93 NE26      29.93F FOG
DECORAH *      CLOUDY    36  34  93 NE14G21   30.04F WCI  27
MONTICELLO *   LGT RAIN  39  37  93 NE13G21   29.97S WCI  32
OELWEIN *      CLOUDY    37  37 100 NE23      30.00R WCI  26
WATERLOO       CLOUDY    38  35  89 NE17G25   30.02R WCI  28
$$

IAZ064-065-067-068-078-251600-
   EAST CENTRAL IOWA

CITY           SKY/WX    TMP DP  RH WIND       PRES   REMARKS
MUSCATINE *    MIX PCPN  43  41  93 NE13G23   29.93R
QUAD CITIES    LGT RAIN  43  40  89 NE13      29.92S FOG
$$

IAZ062-063-075>077-085>089-095>099-251600-
   SOUTHEAST IOWA

CITY           SKY/WX    TMP DP  RH WIND       PRES   REMARKS
FAIRFIELD *    CLOUDY    43  43 100 NE13G21   29.90R FOG
FORT MADISON * CLOUDY    46  46 100 NE9       29.88S
KEOKUK *       CLOUDY    48  46  93 NE8       29.86S FOG
OSKALOOSA *    LGT RAIN  42  41  98 NE17      29.90F
WASHINGTON *   LGT RAIN  43  41  93 NE16G26   29.91F
$$

ABBREVIATIONS USED IN REMARKS
   TC - TEMPERATURES IN CELSIUS
  WCI - WIND CHILL INDEX
   HX - HEAT INDEX
  VSB - VISIBILITY
$$





USA.gov is the U.S. government's official web portal to all federal, state and local government web resources and services.